AI7R Weather Reports


time (UTC)temp
C
wind
direction
speed
KPH
gust
KPH
rain 1hr
cm
rain 24hr
cm
rain mn
cm
humidity
%
barometer
mb
20190525034517 11 57 3.2 4.8 0.00 0.00 0.00 34 1008.4
20190525033022 11 82 1.6 4.8 0.00 0.00 0.00 34 1008.4
20190525031518 12 0 0.0 0.0 0.00 0.00 0.00 30 1008.4
20190525030022 12 0 0.0 0.0 0.00 0.00 0.00 32 1008.4
20190525024517 13 0 0.0 0.0 0.00 0.00 0.00 30 1008.4
20190525023022 13 0 0.0 8.0 0.00 0.00 0.00 28 1008.3
20190525021517 15 164 3.2 12.9 0.00 0.00 0.00 27 1008.3
20190525020022 15 159 3.2 14.5 0.00 0.00 0.00 25 1008.2
20190525014517 16 162 4.8 11.3 0.00 0.00 0.00 25 1008.1
20190525013022 16 164 6.4 17.7 0.00 0.00 0.00 24 1008.0
20190525011517 17 177 6.4 12.9 0.00 0.00 0.00 24 1007.9
20190525010022 17 152 4.8 17.7 0.00 0.00 0.00 24 1008.0
20190525004517 17 163 9.7 22.5 0.00 0.00 0.00 23 1008.1
20190525003022 17 154 8.0 19.3 0.00 0.00 0.00 24 1008.3
20190525001517 18 152 9.7 20.9 0.00 0.00 0.00 25 1008.5
20190525000026 18 164 6.4 12.9 0.00 0.00 0.00 25 1008.6
20190524234518 18 158 3.2 20.9 0.00 0.00 0.00 24 1008.6
20190524233022 18 151 3.2 17.7 0.00 0.00 0.00 26 1008.0
20190524231517 18 188 9.7 22.5 0.00 0.00 0.00 24 1008.1
20190524230022 19 229 6.4 14.5 0.00 0.00 0.00 25 1008.2
20190524224517 18 145 9.7 17.7 0.00 0.00 0.00 26 1008.3
20190524223022 18 243 6.4 17.7 0.00 0.00 0.00 26 1008.5
20190524221517 18 200 6.4 22.5 0.00 0.00 0.00 28 1008.7
20190524213024 17 122 6.4 29.0 0.00 0.00 0.00 26 1009.5
20190524211516 18 161 9.7 22.5 0.00 0.00 0.00 28 1009.6
20190524210030 17 167 6.4 16.1 0.00 0.00 0.00 25 1009.2
20190524204516 17 148 6.4 17.7 0.00 0.03 0.00 21 1009.3
20190524203022 17 133 9.7 20.9 0.00 0.05 0.00 23 1009.4
20190524201517 17 153 9.7 17.7 0.00 0.08 0.00 25 1009.6
20190524200022 17 148 6.4 27.4 0.00 0.08 0.00 24 1009.9
20190524194516 17 137 11.3 20.9 0.00 0.08 0.00 23 1010.2
20190524193021 17 143 6.4 16.1 0.00 0.08 0.00 24 1010.5
20190524191516 17 161 6.4 19.3 0.00 0.13 0.00 25 1010.7
20190524190024 16 143 4.8 19.3 0.00 0.15 0.00 25 1010.9
20190524184517 16 126 3.2 11.3 0.00 0.15 0.00 29 1010.3
20190524183021 16 133 11.3 22.5 0.00 0.15 0.00 30 1010.4
20190524181517 16 144 8.0 20.9 0.00 0.15 0.00 32 1010.5
20190524180022 15 195 4.8 14.5 0.00 0.15 0.00 35 1010.7
20190524174516 15 128 4.8 17.7 0.00 0.15 0.00 35 1010.8
20190524173022 15 198 4.8 14.5 0.00 0.15 0.00 35 1011.0
20190524171516 14 176 4.8 14.5 0.00 0.18 0.00 37 1011.1
20190524170022 14 165 4.8 14.5 0.00 0.28 0.00 38 1011.2
20190524164517 13 147 1.6 11.3 0.00 0.33 0.00 37 1011.2
20190524163022 13 164 3.2 11.3 0.00 0.38 0.00 37 1011.2
20190524161517 13 157 6.4 12.9 0.00 0.43 0.00 41 1010.5
20190524160023 12 160 1.6 14.5 0.00 0.43 0.00 47 1010.5
20190524154517 11 0 0.0 8.0 0.00 0.43 0.00 46 1010.6
20190524153021 11 149 1.6 9.7 0.00 0.43 0.00 45 1010.6
20190524151516 11 152 4.8 11.3 0.00 0.43 0.00 50 1010.5
20190524150021 10 0 0.0 4.8 0.00 0.43 0.00 56 1010.4
20190524144517 10 0 0.0 3.2 0.00 0.43 0.00 60 1010.4
20190524143022 9 0 0.0 4.8 0.00 0.43 0.00 49 1010.2
20190524141516 8 0 0.0 4.8 0.00 0.43 0.00 53 1010.4
20190524140021 8 0 0.0 6.4 0.00 0.43 0.00 59 1010.5
20190524134517 7 38 4.8 8.0 0.00 0.43 0.00 55 1010.5
20190524133023 6 0 0.0 3.2 0.00 0.43 0.00 59 1010.4
20190524130023 6 18 1.6 3.2 0.00 0.43 0.00 59 1009.5
20190524124526 6 18 1.6 4.8 0.00 0.43 0.00 59 1009.3
20190524123021 6 19 3.2 4.8 0.00 0.46 0.00 60 1009.2
20190524121516 6 16 4.8 6.4 0.00 0.46 0.00 61 1009.2
20190524120021 6 20 4.8 8.0 0.00 0.46 0.00 61 1009.2
20190524114819 5 20 4.8 8.0 0.00 0.46 0.00 62 1009.4
20190524114517 5 20 4.8 8.0 0.00 0.46 0.00 62 1009.4
20190524113021 6 22 4.8 8.0 0.00 0.46 0.00 62 1009.3
20190524111516 5 30 3.2 9.7 0.00 0.48 0.00 63 1009.3
20190524110029 5 33 4.8 9.7 0.00 0.48 0.00 64 1009.4
20190524104516 5 41 4.8 11.3 0.00 0.48 0.00 65 1009.4
20190524101516 6 35 4.8 9.7 0.00 0.53 0.00 64 1009.4
20190524100022 6 36 4.8 8.0 0.00 0.58 0.00 63 1009.5
20190524094516 6 24 4.8 6.4 0.00 0.64 0.00 64 1009.5
20190524090024 6 29 4.8 8.0 0.00 0.64 0.00 65 1009.5
20190524084516 6 22 4.8 8.0 0.00 0.64 0.00 66 1009.6
20190524083021 6 25 3.2 6.4 0.00 0.64 0.00 67 1009.7
20190524081529 6 30 3.2 6.4 0.00 0.64 0.00 67 1009.8
20190524080022 6 33 1.6 8.0 0.00 0.64 0.00 68 1009.8
20190524074516 6 19 3.2 8.0 0.00 0.66 0.00 69 1009.9
20190524073027 5 19 4.8 9.7 0.00 0.66 0.00 70 1010.1
20190524071516 5 32 4.8 8.0 0.00 0.66 0.00 70 1010.2
20190524070022 5 33 4.8 6.4 0.00 0.69 0.66 71 1010.4
20190524064516 5 23 3.2 4.8 0.00 0.69 0.66 72 1010.5
20190524063021 5 23 3.2 6.4 0.00 0.69 0.66 72 1010.6
20190524061516 5 25 3.2 6.4 0.00 0.69 0.66 72 1010.7
20190524060021 5 27 3.2 8.0 0.00 0.69 0.66 72 1010.7
20190524054516 5 23 4.8 8.0 0.00 0.69 0.66 73 1010.7
20190524053021 5 31 4.8 8.0 0.00 0.69 0.66 73 1010.8
20190524051516 5 27 4.8 6.4 0.00 0.69 0.66 73 1010.8
20190524050021 5 27 4.8 9.7 0.00 0.69 0.66 74 1010.8
20190524044516 5 28 4.8 8.0 0.00 0.69 0.66 74 1010.7
20190524043021 5 19 3.2 6.4 0.00 0.69 0.66 76 1010.5
20190524041516 5 29 1.6 6.4 0.00 0.69 0.66 76 1010.2